Regional Weather Roundup
Issued by NWS Midland/Odessa, TX

Skip options and go directly to product.
Home | Oldest Version | Previous Version | Current Version | All | Text Only | Save Text | Print | Product List | Glossary Off

Skip product version selection by date and time.   

516
ASUS44 KMAF 270801
RWRMAF
MIDLAND AREA WEATHER ROUNDUP
NATIONAL WEATHER SERVICE MIDLAND TX
300 AM CDT WED MAY 27 2015

...IN SOUTHWEST TEXAS AND SOUTHEAST NEW MEXICO...

CITY           SKY/WX    TMP DP  RH WIND       PRES   REMARKS
ALPINE         CLEAR     59  51  75 W5        30.13S
ANDREWS        FAIR      68  67  96 S7        30.01S
ARTESIA        PTCLDY    59  34  38 W6        30.02S
BIG SPRING     CLEAR     74  69  83 SE12      30.02S
CARLSBAD       PTCLDY    58  42  55 CALM      29.99S
DRYDEN           N/A     72  65  78 NW6       29.95S
FORT STOCKTON  CLEAR     70  65  84 S15G22    29.99F
GUAD PASS      CLEAR     65  27  23 NE15      30.13S
HOBBS          CLEAR     61  59  94 S7        30.04F
MARFA          CLEAR     54  39  58 N8        30.11F
MIDLAND AIRPK  CLEAR     73  67  83 S9        30.01S
MIDLAND INTL   CLEAR     71  67  87 SE12      30.00S FOG
ODESSA         CLEAR     72  66  81 S12       30.00F
PECOS          CLEAR     71  64  78 SE14      29.96R
PRESIDIO       FAIR      76  55  47 N12       29.95F
SEMINOLE       CLEAR     59  55  87 CALM      30.03S
SNYDER         CLEAR     67  63  89 SE10      30.02S
WINK           PTCLDY    72  67  84 SE13      29.97S
$$
...OTHER STATIONS IN TEXAS...

CITY           SKY/WX    TMP DP  RH WIND       PRES   REMARKS
ABILENE        CLEAR     66  61  84 SE17      30.02R
AMARILLO       CLEAR     60  56  86 E9        30.04R
AUSTIN         MOCLDY    76  75  97 E6        30.02S
BROWNSVILLE    CLOUDY    79  76  90 S13       29.95F
CORPUS CHRISTI CLOUDY    80  77  90 SE14      29.95S
DALLAS FTW     CLOUDY    65  59  81 S12       29.98R
DEL RIO        CLOUDY    79  74  84 SE10      29.92S
EL PASO        CLEAR     65  31  28 S5        30.01S
HOUSTON INT    CLOUDY    78  75  90 CALM      30.02S
LUBBOCK        PTCLDY    62  52  69 SE8       30.02F
SAN ANGELO     MOCLDY    72  69  90 E6        30.00F
SAN ANTONIO    CLOUDY    77  74  90 SE7       29.99F
WACO           CLOUDY    65  62  90 S7        30.05F
WICHITA FALLS  NOT AVBL
$$
...OTHER LOCATIONS IN NEW MEXICO...

CITY           SKY/WX    TMP DP  RH WIND       PRES   REMARKS
ALAMAGORDO     PTCLDY    63  28  27 W5        30.03S
ALBUQUERQUE    MOCLDY    63  44  50 E8        30.10F
CANNON AFB     NOT AVBL
CLOVIS         CLEAR     55  50  82 SE3       30.04R
HOLLOMAN AFB   PTCLDY    59  35  40 NW8       30.01R
ROSWELL        PTCLDY    60  45  57 W7        30.01S
RUIDOSO        PTCLDY    55  28  35 CALM      30.21S
SANTA FE       MOCLDY    53  43  68 E7        30.16F
TRUTH OR CONSE CLEAR     63  24  22 NW9       30.05S
TUCUMCARI      MOCLDY    62  52  69 W10       30.05R
$$

USA.gov is the U.S. government's official web portal to all federal, state and local government web resources and services.